[[{"header":{"parameterUnit":"m.s-1","parameterCategory":1,"la1":30.2992,"la2":30.254,"lo1":-89.0895,"lo2":-89.0443,"dy":0.0025,"dx":0.0025,"nx":19,"ny":19,"refTime":"2026-05-07T03:00:00:Z","depth":0,"parameterNumber":2,"parameterNumberName":"U-component_of_WINDS"},"data":[0,0,0,0.2581,0.2585,0.2762,0.2762,0.299,0.2991,0,0,0,0,0,0,0,0,0,0,0,0.2526,0.2527,0.2581,0.2585,0.2762,0.2762,0.2989,0.2991,0,0,0,0,0,0,0,0,0,0,0,0.2525,0.2527,0.2528,0.2586,0.2761,0.2763,0.2989,0.2856,0,0,0,0,0,0,0,0,0,0,0.2685,0.2629,0.2526,0.2529,0.2587,0.2761,0.2763,0.285,0.2864,0.2909,0,0.2944,0,0.2971,0.3006,0.3007,0,0,0,0.2589,0.2617,0.2667,0.2529,0.2589,0.2761,0.2683,0.2858,0.2874,0.2928,0.2947,0.2955,0.2975,0.3008,0.3009,0.3244,0.3244,0,0,0.2579,0.2557,0.2655,0.2677,0.2646,0.2678,0.2689,0.2868,0.2889,0.2948,0.2961,0.2978,0.3009,0.3011,0.3243,0.3244,0,0,0,0.2549,0.255,0.2596,0.2668,0.2699,0.2683,0.2695,0.2881,0.2897,0.2963,0.2981,0.3011,0.3013,0.3242,0.3243,0.3266,0,0,0,0.2543,0.2532,0.2591,0.2579,0.2696,0.2791,0.2704,0.2885,0.2906,0.298,0.3011,0.3015,0.3241,0.3242,0.3263,0.3282,0,0,0,0.2516,0.2529,0.2553,0.2578,0.2652,0.2789,0.2816,0.289,0.2916,0.3007,0.3016,0.324,0.3242,0.3261,0.3277,0.3337,0,0,0,0.2481,0.2572,0.2553,0.2662,0.265,0.28,0.2815,0.2929,0.3009,0.3012,0.3241,0.3243,0.326,0.3275,0.3334,0.3384,0.3402,0,0,0.2584,0.2584,0.265,0.2638,0.2784,0.2775,0.2927,0.3024,0.3056,0.318,0.3186,0.3264,0.3277,0.3337,0.3508,0.3522,0,0,0,0.2675,0.2722,0.2766,0.284,0.2913,0.298,0.3055,0.3091,0.3197,0.3113,0.3302,0.331,0.3346,0.3371,0.3383,0.3416,0.3253,0.3253,0.3252,0.279,0.2822,0.2934,0.2988,0.3059,0.3135,0.3198,0.3261,0.3274,0.3318,0.3356,0.3455,0.3484,0.3493,0.3527,0.3384,0.3384,0.3384,0.3384,0.2945,0.3018,0.3031,0.3145,0.318,0.3278,0.3356,0.3362,0.346,0.343,0.3463,0.3428,0.3507,0.3539,0.3386,0.3386,0.3385,0.3385,0.3385,0.3025,0.3066,0.3105,0.3215,0.3297,0.335,0.3443,0.3472,0.35,0.3533,0.3577,0.3577,0.3582,0.3552,0.3552,0.3552,0.3553,0.3553,0.3553,0.3093,0.3137,0.321,0.3295,0.3346,0.3418,0.3496,0.3549,0.3615,0.363,0.363,0.3641,0.3507,0.3474,0.3559,0.3558,0.3557,0.3556,0.3556,0.3241,0.3212,0.3324,0.3375,0.3478,0.3559,0.3594,0.3699,0.3747,0.3793,0.3796,0.3692,0.3695,0.3686,0.3659,0.3787,0.3787,0.3787,0.3787,0.331,0.3313,0.3434,0.3514,0.3596,0.3639,0.3769,0.3831,0.3891,0.3924,0.391,0.3875,0.3864,0.3875,0.3862,0.3837,0.4007,0.4007,0.4007,0.3403,0.3416,0.3519,0.3573,0.3656,0.3728,0.3852,0.3947,0.401,0.4017,0.3951,0.3941,0.3887,0.3867,0.3874,0.3853,0.3808,0,0]},{"header":{"parameterUnit":"m.s-1","parameterCategory":1,"la1":30.2992,"la2":30.254,"lo1":-89.0895,"lo2":-89.0443,"dy":0.0025,"dx":0.0025,"nx":19,"ny":19,"refTime":"2026-05-07T03:00:00:Z","depth":0,"parameterNumber":3,"parameterNumberName":"V-component_of_WINDS"},"data":[0,0,0,-1.4212,-1.4208,-1.4019,-1.4019,-1.3758,-1.3756,0,0,0,0,0,0,0,0,0,0,0,-1.4261,-1.4259,-1.4213,-1.4208,-1.402,-1.4019,-1.3759,-1.3756,0,0,0,0,0,0,0,0,0,0,0,-1.4262,-1.426,-1.4257,-1.4207,-1.402,-1.4019,-1.3759,-1.3907,0,0,0,0,0,0,0,0,0,0,-1.4093,-1.4132,-1.426,-1.4257,-1.4206,-1.402,-1.4019,-1.3915,-1.3898,-1.3837,0,-1.3785,0,-1.3766,-1.3738,-1.3737,0,0,0,-1.4212,-1.4146,-1.4103,-1.4257,-1.4204,-1.402,-1.4106,-1.3906,-1.3887,-1.3815,-1.3781,-1.3772,-1.3762,-1.3736,-1.3735,-1.3377,-1.3375,0,0,-1.4222,-1.4222,-1.4116,-1.409,-1.4123,-1.4112,-1.41,-1.3895,-1.3856,-1.378,-1.3766,-1.3758,-1.3734,-1.3732,-1.3379,-1.3377,0,0,0,-1.425,-1.4229,-1.4191,-1.41,-1.4068,-1.4106,-1.4092,-1.3865,-1.3853,-1.3763,-1.3755,-1.3733,-1.3729,-1.3381,-1.3378,-1.3285,0,0,0,-1.4256,-1.4245,-1.4195,-1.4193,-1.4072,-1.3965,-1.4067,-1.3867,-1.3844,-1.3756,-1.3732,-1.3727,-1.3383,-1.3379,-1.3292,-1.3238,0,0,0,-1.4276,-1.4248,-1.4218,-1.4193,-1.4113,-1.3969,-1.3945,-1.3862,-1.3838,-1.3736,-1.3726,-1.3384,-1.338,-1.3298,-1.3249,-1.3142,0,0,0,-1.4295,-1.4137,-1.4217,-1.4037,-1.4114,-1.3915,-1.3946,-1.3796,-1.3698,-1.3731,-1.3383,-1.3378,-1.33,-1.3255,-1.3149,-1.3049,-1.3009,0,0,-1.4095,-1.4113,-1.4007,-1.4073,-1.3859,-1.3944,-1.3714,-1.3623,-1.3612,-1.3455,-1.3446,-1.3289,-1.325,-1.3143,-1.2792,-1.276,0,0,0,-1.3943,-1.3866,-1.381,-1.3719,-1.3648,-1.3581,-1.3526,-1.3492,-1.3359,-1.3533,-1.3224,-1.32,-1.3138,-1.309,-1.3063,-1.3007,-1.3358,-1.3358,-1.3359,-1.3655,-1.3653,-1.3476,-1.3451,-1.3361,-1.3307,-1.3232,-1.3177,-1.3199,-1.3126,-1.3077,-1.2865,-1.2809,-1.2789,-1.2731,-1.3029,-1.3028,-1.3028,-1.3028,-1.3358,-1.3247,-1.3283,-1.3124,-1.3121,-1.2986,-1.2927,-1.2947,-1.2818,-1.2902,-1.2846,-1.2934,-1.2754,-1.2703,-1.3021,-1.3022,-1.3023,-1.3023,-1.3024,-1.3165,-1.3111,-1.3076,-1.2943,-1.284,-1.282,-1.2694,-1.2697,-1.2697,-1.2643,-1.259,-1.2591,-1.2589,-1.2619,-1.2618,-1.2617,-1.2617,-1.2616,-1.2616,-1.2977,-1.294,-1.2836,-1.2749,-1.269,-1.2612,-1.2557,-1.2497,-1.2431,-1.2442,-1.2441,-1.2467,-1.274,-1.2805,-1.2604,-1.2606,-1.2608,-1.2609,-1.2609,-1.2667,-1.2738,-1.2577,-1.2518,-1.2415,-1.2311,-1.2318,-1.2196,-1.2147,-1.2084,-1.2124,-1.2327,-1.2343,-1.2365,-1.2418,-1.2129,-1.2129,-1.2129,-1.2129,-1.25,-1.2512,-1.2347,-1.2252,-1.216,-1.215,-1.1963,-1.1918,-1.1882,-1.1851,-1.1894,-1.1968,-1.199,-1.1993,-1.2022,-1.2072,-1.1701,-1.17,-1.17,-1.2308,-1.231,-1.2152,-1.2122,-1.2042,-1.1971,-1.1795,-1.168,-1.1655,-1.1683,-1.1825,-1.1843,-1.1962,-1.2002,-1.2027,-1.2073,-1.2165,0,0]}]]